This demonstration page uses our WeatherBlox Daily Observations layout. Learn more.

Left ArrowRight Arrow

41.55636, -103.73856

Hourly Observations for August 30, 2021

Temp ( °F °C ) Dew Point ( °F °C ) Humidity (%) Winds ( mph kmh ) Pressure ( in mb ) Visibility ( mi km ) Precip ( " mm )
12:58 am 00:58 Clear 64 18 60 15.5 85 85 S 30 48 29.89 1012 10 16 0.00 0.00
1:58 am 01:58 Clear 64 17.9 60 15.5 86 86 SSW 28 44 29.88 1012 10 16 0.00 0.00
2:58 am 02:58 Mostly Cloudy 65 18.3 60 15.7 85 85 S 10 17 29.90 1012 10 16 0.00 0.00
3:58 am 03:58 Mostly Cloudy 64 17.5 60 15.4 88 88 S 13 20 29.87 1011 10 16 0.00 0.00
4:58 am 04:58 Mostly Cloudy 64 17.5 60 15.4 88 88 SSW 8 13 29.87 1011 10 16 0.00 0.00
5:58 am 05:58 Mostly Cloudy 62 16.9 59 15 89 89 SSW 10 17 29.87 1012 10 16 0.00 0.00
6:58 am 06:58 Cloudy 62 16.4 59 14.8 90 90 S 12 19 29.88 1012 7 11 0.00 0.00
7:58 am 07:58 Mostly Cloudy 63 17.2 58 14.6 85 85 S 9 15 29.89 1012 10 16 0.00 0.00
8:58 am 08:58 Sunny 68 19.9 58 14.7 72 72 SSW 12 19 29.87 1012 10 16 0.00 0.00
9:58 am 09:58 Sunny 72 22.3 53 11.4 50 50 WSW 6 9 29.87 1012 10 16 0.00 0.00
10:58 am 10:58 Sunny 78 25.3 49 9.3 36 36 SW 6 9 29.84 1011 10 16 0.00 0.00
11:58 am 11:58 Sunny 83 28.5 39 4 21 21 NNE 3 6 29.82 1010 10 16 0.00 0.00
12:58 pm 12:58 Sunny 86 29.9 37 2.5 17 17 NNW 10 17 29.79 1009 10 16 0.00 0.00
1:58 pm 13:58 Sunny 88 31.3 32 0.1 13 13 WNW 7 11 29.77 1008 10 16 0.00 0.00
2:58 pm 14:58 Sunny 91 32.7 31 -0.4 12 12 NNW 14 22 29.73 1007 10 16 0.00 0.00
3:58 pm 15:58 Sunny 91 32.5 34 1.2 13 13 NNE 9 15 29.72 1007 10 16 0.00 0.00
4:58 pm 16:58 Sunny 89 31.4 36 2 15 15 NE 7 11 29.73 1007 10 16 0.00 0.00
5:58 pm 17:58 Sunny 86 29.9 35 1.4 16 16 NE 9 15 29.74 1007 10 16 0.00 0.00
6:58 pm 18:58 Sunny 78 25.3 37 2.9 23 23 E 9 15 29.75 1007 10 16 0.00 0.00
7:58 pm 19:58 Clear 77 24.8 32 0.1 20 20 SE 9 15 29.76 1008 10 16 0.00 0.00
8:58 pm 20:58 Clear 77 24.8 32 0.1 20 20 SE 10 17 29.76 1008 10 16 0.00 0.00
9:58 pm 21:58 Clear 68 20 34 1.3 29 29 S 6 9 29.77 1008 10 16 0.00 0.00
10:58 pm 22:58 Clear 69 20.6 32 -0.1 25 25 ENE 5 7 29.76 1008 10 16 0.00 0.00
11:58 pm 23:58 Clear 68 20.2 30 -0.9 24 24 Calm 29.73 1007 10 16 0.00 0.00

Powered by AerisWeather